User: anonymous   Login
Location: Unspecified
(0.0000°N, 0.0000°E)
Time: 12:06:24
(UTC+00:00)
Language:

FORMOSAT 3E - Orbit

View from above orbital plane
View from above orbital plane
View from above satellite
View from above satellite

Ground track
Ground track

The orbit data is extracted from the following two-line orbital elements,

1 29051U 06011E   17178.32727541 +.00000015 +00000-0 +21818-4 0  9990
2 29051 072.0049 148.2082 0068361 001.3638 358.7671 14.28594199587066
Epoch (UTC): 27 June 2017 07:51:16
Eccentricity: 0.0068361
inclination: 72.0049°
perigee height: 747 km
apogee height: 845 km
right ascension of ascending node: 148.2082°
argument of perigee: 1.3638°
revolutions per day: 14.28594199
mean anomaly at epoch: 358.7671°
orbit number at epoch: 58706

The dashed part of the orbit path shows where the satellite is in the earth's shadow,  

DLR